{"data":{"norad_id":43245,"epoch":"2026-09-19T23:46:18.755904Z","epoch_age_seconds":58461,"freshness":"FRESH","line1":"1 43245U 18029A   26262.99049486 -.00000021  00000+0  00000+0 0  9997","line2":"2 43245  54.1054 296.6241 0001767 237.2935 122.7492  1.86228592 57665","mean_motion":1.86228592,"eccentricity":0.0001767,"inclination_deg":54.1054,"raan_deg":296.6241,"arg_perigee_deg":237.2935,"mean_anomaly_deg":122.7492,"bstar":0,"rev_number":5766,"period_min":773.24324075865,"perigee_km":21523.36105511,"apogee_km":21533.223187162,"semimajor_km":27906.429121136,"source":"CELESTRAK","updated_at":"2026-09-20T09:00:46.676560Z"}}